Weather in Duki

Russia / Khabarovsk Krai     51°33′52″N   135°48′43″E
В апреле 2022 года жителям России запретили посещать сайт meteo.paraplan.net по решению Генеральной прокуратуры. Аудитория сайта уменьшилась в 10 раз. Владельцы сайта не видят смысла в поддержке погодного сервера в таких условиях. Сайт будет закрыт в октябре.
temp.,
°C
wind,
m/s
gust,
m/s
humid.,
%
clouds,
%
prec.,
mm/h
press.,
hPa
HPBL,
m
29 september, thu
thu2901:00+2wsw22771 0.0 101221
04:000wsw22854 0.0 101346
07:000wsw25844 0.0 101490
10:00+7w385111 0.0 1013605
13:00+11wsw34365 0.0 10111380
16:00+12sw233591 0.0 10091151
19:00+6ene116796 0.0 100911
22:00+6w1172100 0.0 100810
30 september, fri
fri3001:00+5wsw1186100 0.4 100729
04:00+5wsw239199 0.7 1006109
07:00+3wsw229517 0.0 100651
10:00+8w36795 0.0 1006537
13:00+11w685213 0.0 10071356
16:00+11wnw574812 0.0 10081366
19:00+6wnw2266100 0.0 101013
22:00+6nne1181100 0.0 101122
1 october, sat
sat101:00+5ne2488100 0.1 1011186
04:00+4n2584100 0.1 1013348
07:00+3nw1382100 0.0 1015128
10:00+6nw126180 0.0 1016743
13:00+8w235999 0.0 10171364
16:00+10ssw1255100 0.0 10171019
19:00+5ese117943 0.0 101910
22:00+3n118899 0.0 102110
2 october, sun
sun201:00+2w1192100 0.0 102110
04:00+2sw2188100 0.0 102120
07:00+2wsw2283100 0.0 102025
10:00+7sw2463100 0.0 1019349
13:00+12wsw4850100 0.0 1016995
16:00+13sw4755100 0.0 10141102
19:00+9ssw3869100 0.0 1014217
22:00+10sw31068100 0.0 1012505
3 october, mon
mon301:00+8sw2287100 0.2 101167
04:00+7wsw1293100 0.4 100953
07:00+7wnw1197100 0.6 100821
10:00+7w1197100 2.3 100758
13:00+9wsw3778100 0.0 1005647
16:00+9wsw4869100 0.0 1004754
19:00+6w4106629 0.0 1005370
22:00+3w39630 0.0 1006340